Dewpoint
52 52 52 49 50 54 57 57 61 61 60 59 57 60 60 59 59 61 64 62 63 63 61 62 61 58 58 57 59 57 54 51
52 53 53 51 52 54 56 59 62 60 58 58 59 60 60 60 59 62 64 63 63 63 60 62 60 58 57 58 58 56 51 49
52 53 52 52 53 56 56 58 60 60 58 58 59 60 60 60 61 63 63 62 62 62 60 60 59 57 57 58 58 53 50 49
52 53 53 54 54 58 56 59 60 61 60 59 60 63 62 61 61 61 61 61 60 59 59 58 58 57 55 57 57 54 48 47
54 53 53 54 55 60 59 59 61 62 62 60 61 60 60 61 60 60 59 60 59 57 58 57 58 55 55 56 54 54 50 46
55 55 55 55 58 61 61 62 60 62 63 63 63 61 60 60 60 60 59 58 57 56 56 56 57 54 55 55 54 53 48 46
53 57 58 58 58 62 63 62 62 63 63 64 64 62 61 59 59 58 58 57 56 55 54 55 55 53 53 52 52 53 50 49
53 56 58 60 61 62 64 62 61 62 64 64 64 64 65 63 60 58 58 57 55 55 54 54 52 52 51 50 52 52 51 49
56 59 59 61 62 64 65 64 62 63 64 64 65 65 65 62 60 59 59 58 57 55 53 52 50 49 49 50 50 50 51 51
54 57 59 60 62 64 66 65 65 64 64 66 65 66 65 64 63 63 61 58 55 53 53 52 48 47 47 49 46 48 50 51
47 51 56 60 61 63 65 64 63 64 65 64 64 64 62 60 59 56 55 53 53 51 50 49 46 45 47 48 46 46 47 46
49 52 50 56 61 63 63 62 62 62 61 61 61 60 59 57 56 56 55 52 50 48 47 46 45 43 43 44 44 42 41 40
41 49 51 52 54 59 60 60 60 61 60 59 58 57 56 55 55 55 52 50 50 48 47 46 44 42 42 42 41 38 37 37
37 39 43 45 50 53 56 58 58 59 59 57 57 55 55 54 53 52 51 50 49 48 46 44 41 41 41 42 39 38 39 37
35 37 38 39 40 45 51 54 55 56 55 55 55 54 54 54 52 51 50 50 48 46 45 44 44 41 38 38 36 39 39 35
32 34 36 37 39 39 39 48 52 54 54 53 53 53 53 52 52 50 50 49 48 47 47 46 44 43 37 39 36 38 36 37
28 30 33 34 36 40 41 41 45 50 53 52 52 50 50 51 50 50 50 49 48 47 46 44 44 39 35 35 37 37 33 35
23 24 28 33 35 40 42 42 41 46 49 50 50 50 49 48 49 49 47 48 48 46 44 43 42 41 35 35 35 35 33 34
22 22 25 27 33 36 42 43 44 45 46 49 48 48 48 47 47 46 47 47 45 45 44 44 43 39 35 34 34 36 37 34
Lifted_Index
-2 -2 -1 -0 0 0 0 0 -0 0 0 0 0 -0 -1 -0 -0 -1 -1 -1 -1 -1 -0 0 1 1 2 2 2 2 4 5
-2 -2 -1 -1 -0 0 0 -0 -0 -0 -0 -0 -1 -1 -1 -1 -1 -1 -1 -1 -1 -1 0 0 1 1 1 1 1 2 4 5
-3 -2 -2 -1 -1 -1 -1 -1 -1 -1 -1 -1 -1 -2 -2 -1 -1 -1 -1 -1 -1 -0 0 1 1 1 1 1 1 2 4 6
-3 -3 -2 -2 -2 -2 -2 -2 -2 -2 -1 -1 -2 -2 -2 -2 -2 -1 -1 -1 -1 -1 0 1 1 1 1 1 1 3 5 7
-4 -4 -3 -2 -2 -3 -3 -3 -3 -3 -2 -2 -3 -3 -3 -2 -2 -1 -1 -1 -1 -1 -0 0 1 1 1 1 3 4 6 8
-5 -5 -4 -4 -3 -3 -3 -4 -4 -3 -3 -3 -3 -3 -3 -2 -2 -1 -1 -1 -1 -1 -1 -0 0 1 1 2 4 6 7 8
-6 -6 -5 -5 -4 -4 -4 -4 -4 -3 -3 -4 -3 -3 -3 -3 -2 -1 -1 -1 -1 -1 -1 -0 0 1 2 4 6 7 8 8
-6 -6 -6 -5 -5 -5 -5 -4 -3 -3 -3 -3 -3 -3 -4 -3 -2 -1 -0 -0 -1 -1 -1 -1 -0 1 3 5 7 8 8 8
-6 -6 -6 -6 -6 -6 -5 -4 -4 -3 -3 -3 -3 -4 -4 -3 -2 -1 -1 -1 -1 -1 -1 -0 0 1 4 7 8 8 8 8
-5 -5 -6 -6 -6 -6 -5 -4 -4 -4 -3 -3 -3 -3 -3 -3 -2 -2 -1 -1 -1 -1 -1 -0 1 3 5 8 9 9 9 9
-3 -3 -4 -5 -6 -6 -5 -4 -4 -4 -3 -3 -3 -3 -3 -3 -2 -2 -2 -2 -1 -1 -1 0 2 4 7 10 11 11 10 10
-0 -1 -2 -4 -4 -4 -4 -3 -3 -3 -3 -3 -3 -3 -3 -3 -2 -2 -2 -2 -2 -1 -1 0 2 5 8 12 13 13 13 12
2 1 -1 -2 -3 -3 -3 -3 -3 -3 -3 -3 -4 -3 -3 -3 -3 -3 -3 -3 -2 -2 -1 1 3 6 10 13 14 14 14 13
5 3 1 -1 -3 -3 -3 -2 -2 -2 -2 -3 -3 -3 -3 -3 -3 -3 -3 -2 -2 -1 0 2 4 8 12 15 15 15 15 14
6 5 3 1 0 0 0 -0 -1 -1 -1 -1 -2 -2 -2 -2 -3 -3 -3 -2 -1 -0 1 2 5 9 13 15 16 15 15 14
7 6 6 5 4 4 4 3 2 1 0 -0 -1 -1 -1 -1 -2 -3 -3 -2 -1 -0 1 2 5 7 11 14 16 15 14 14
7 7 7 7 7 6 6 5 4 3 2 2 1 0 -1 -1 -1 -2 -2 -2 -1 0 1 2 3 6 10 14 15 14 14 14
9 9 9 8 8 7 6 6 5 5 4 3 2 1 -0 -1 -1 -1 -1 -2 -1 0 1 2 4 7 10 13 14 14 15 15
10 10 10 10 9 7 6 6 5 5 5 4 3 1 -0 -1 -1 -1 -1 -1 -1 -0 1 2 4 8 11 13 14 15 15 15